Flag for Martinique Weather past 2 weeks in Fort-de-France, Martinique

Now
75 °F

Light rain. Partly cloudy.


Feels Like: 74 °F
Forecast: 77 / 85 °F
Wind: 7 mph from Northeast

Location: Le Lamentin Airport

Current Time: Dec 21, 2014 at 12:10:26 AM

Latest Report: Dec 20, 2014 at 11:30 PM


Visibility: 4 mi

Pressure: 29.98 "Hg

Humidity: 94%

Dew point: 73 °F

Location of Fort-de-FranceLocation

Historic Weather in Fort-de-France — Graph

°F

Fort-de-France temperature yesterday

Maximum temperature yesterday: 86 °F (at 12:00 PM)
Minimum temperature yesterday: 73 °F (at 5:30 AM)
Average temperature yesterday: 78 °F

Past Weeks' High & Low Weather Summary

 TemperatureHumidityPressure
High90 °F (Dec 14, 12:30 PM)100% (Dec 5, 11:00 PM)30.04 "Hg (Dec 5, 11:00 PM)
Low68 °F (Dec 14, 5:00 AM)52% (Dec 14, 12:30 PM)29.80 "Hg (Dec 6, 2:30 PM)
Average78 °F82%29.93 "Hg
* Reported Dec 5 11:00 PM — Dec 20 11:00 PM, Fort-de-France, Weather by CustomWeather, © 2014

Note: Actual official high and low records may vary slightly from our data, if they occured in-between our weather recording intervals... More about our weather records

Advertising

Fort-de-France weather history for previous 24 hours

 ConditionsComfort  
Time TempWeatherWind HumidityBarometerVisibility
11:00 PM
Dec 20
77 °FPassing clouds.No wind89%29.98 "HgN/A
10:30 PM77 °FPassing clouds.1 mph89%29.98 "HgN/A
10:00 PM77 °FPassing clouds.3 mph89%29.98 "HgN/A
9:30 PM77 °FPassing clouds.5 mph89%29.98 "HgN/A
9:00 PM77 °FPartly cloudy.2 mph89%29.98 "HgN/A
8:30 PM77 °FPassing clouds.3 mph89%29.98 "HgN/A
8:00 PM77 °FPassing clouds.3 mph89%29.98 "HgN/A
7:30 PM77 °FOvercast.3 mph89%29.98 "HgN/A
7:00 PM77 °FOvercast.6 mph89%29.98 "HgN/A
6:30 PM77 °FOvercast.3 mph83%29.95 "HgN/A
6:00 PM79 °FPassing clouds.3 mph79%29.95 "HgN/A
5:30 PM79 °FWarm.5 mph74%29.95 "HgN/A
5:00 PM79 °FMore clouds than sun.9 mph79%29.95 "HgN/A
4:30 PM81 °FMore clouds than sun.6 mph79%29.95 "HgN/A
4:00 PM81 °FClear.6 mph79%29.92 "HgN/A
3:30 PM81 °FBroken clouds.12 mph79%29.92 "HgN/A
3:00 PM84 °FScattered clouds.8 mph70%29.92 "HgN/A
2:30 PM82 °FMostly cloudy.5 mph70%29.92 "HgN/A
2:00 PM82 °FPartly sunny.12 mph74%29.95 "HgN/A
1:30 PM81 °FBroken clouds.14 mph79%29.95 "HgN/A
1:00 PM86 °FBroken clouds.13 mph62%29.95 "HgN/A
12:30 PM84 °FBroken clouds.12 mph62%29.98 "HgN/A
12:00 PM86 °FPartly sunny.14 mph66%29.98 "HgN/A
11:30 AM84 °FPartly sunny.14 mph70%29.98 "HgN/A
11:00 AM82 °FBroken clouds.13 mph84%30.01 "HgN/A
10:30 AM82 °FPartly sunny.6 mph79%30.01 "HgN/A
10:00 AM79 °FBroken clouds.5 mph94%30.01 "HgN/A
9:30 AM75 °FRain. Partly sunny.6 mph100%30.01 "Hg1 mi
9:00 AM77 °FHeavy rain. Fog.2 mph94%30.01 "Hg1 mi
8:30 AM75 °FBroken clouds.2 mph100%29.98 "HgN/A
8:00 AM75 °FRain. Partly sunny.5 mph100%29.98 "Hg1 mi
7:30 AM75 °FPartly sunny.2 mph100%29.95 "HgN/A
7:00 AM75 °FLight rain. Broken clouds.2 mph94%29.95 "HgN/A
6:30 AM75 °FBroken clouds.1 mph94%29.95 "HgN/A
6:00 AM73 °FRain. Fog.5 mph100%29.92 "Hg1 mi
5:30 AM73 °FPassing clouds.2 mph100%29.92 "HgN/A
5:00 AM75 °FPassing clouds.No wind94%29.92 "HgN/A
4:30 AM75 °FMostly cloudy.2 mph94%29.89 "HgN/A
4:00 AM75 °FPartly cloudy.2 mph94%29.89 "HgN/A
3:30 AM75 °FPartly cloudy.5 mph94%29.92 "HgN/A
3:00 AM75 °FRain. Passing clouds.5 mph94%29.92 "HgN/A
2:30 AM75 °FPartly cloudy.8 mph94%29.92 "Hg4 mi
2:00 AM77 °FPassing clouds.No wind94%29.92 "HgN/A
1:30 AM75 °FPassing clouds.3 mph100%29.92 "HgN/A
1:00 AM75 °FPartly cloudy.3 mph100%29.92 "HgN/A
12:30 AM75 °FLight rain. Partly cloudy.3 mph100%29.95 "HgN/A
12:00 AM75 °FPassing clouds.2 mph100%29.95 "HgN/A
Weather by CustomWeather, © 2014

See weather overviewHow to use our weather pages